Change the Weather History Date:

Friday, November 2, 2012

  Actual Average Record
Temperature  
Mean Temperature 44 °F -  
Max Temperature 50 °F 45 °F 53 °F (2000)
Min Temperature 39 °F 34 °F 30 °F (2002)
Degree Days  
Heating Degree Days 22    
Moisture  
Dew Point 43 °F    
Average Humidity 92    
Maximum Humidity 100    
Minimum Humidity 73    
Precipitation  
Precipitation 0.49 in - - ()
Sea Level Pressure  
Sea Level Pressure 29.56 in    
Wind  
Wind Speed 3 mph (East)    
Max Wind Speed 10 mph    
Max Gust Speed -    
Visibility 7 miles    
Events Rain    
Averages and records for this station are not official NWS values.
T = Trace of Precipitation, MM = Missing Value Source: NWS Daily Summary

Daily Weather History Graph

Daily Weather History Graph

Search for Another Location

Airport or City:

Trip Planner

Search our weather history database for the weather conditions in past years. The results will help you decide how hot, cold, wet, or windy it might be!

Date:

Astronomy

Nov. 02, 2012 Rise Set
Actual Time 8:01 AM AKDT 5:09 PM AKDT
Civil Twilight 7:21 AM AKDT 5:48 PM AKDT
Nautical Twilight 6:38 AM AKDT 6:32 PM AKDT
Astronomical Twilight 5:55 AM AKDT 7:15 PM AKDT
Moon 7:40 PM AKDT (11/2) 11:51 AM AKDT (11/2)
Length of Visible Light 10h 27m
Length of Day
9h 08m
Waning Gibbous, 86% of the Moon is Illuminated
Nov 2
Waning Gibbous
Nov 6
Last Quarter
Nov 13
New
Nov 20
First Quarter
Nov 28
Full

Hourly Weather History & Observations

Time (AKDT) Temp. Windchill Dew Point Humidity Pressure Visibility Wind Dir Wind Speed Gust Speed Precip Events Conditions
12:53 AM 45.0 °F 39.7 °F 37.0 °F 74% 29.59 in 10.0 mi North 10.4 mph - 0.00 in   Overcast
1:53 AM 46.0 °F 44.8 °F 37.9 °F 73% 29.58 in 10.0 mi Variable 3.5 mph - N/A   Overcast
2:53 AM 46.9 °F - 39.0 °F 74% 29.55 in 10.0 mi NNE 6.9 mph - N/A   Overcast
3:53 AM 48.0 °F - 39.9 °F 74% 29.52 in 10.0 mi Calm Calm - 0.00 in Rain Light Rain
4:53 AM 48.0 °F - 43.0 °F 83% 29.50 in 9.0 mi NNW 4.6 mph - 0.01 in Rain Light Rain
5:53 AM 46.9 °F - 44.1 °F 90% 29.50 in 9.0 mi Calm Calm - 0.03 in Rain Light Rain
6:53 AM 48.0 °F - 44.1 °F 86% 29.49 in 8.0 mi Calm Calm - 0.13 in Rain Light Rain
7:53 AM 48.0 °F - 44.1 °F 86% 29.48 in 5.0 mi Calm Calm - 0.09 in Rain Light Rain
8:42 AM 46.4 °F 44.3 °F 44.6 °F 93% 29.49 in 2.0 mi Variable 4.6 mph - 0.08 in Rain Light Rain
9:17 AM 46.4 °F - 46.4 °F 100% 29.50 in 3.0 mi Calm Calm - 0.02 in Rain Light Rain
9:33 AM 46.4 °F 45.2 °F 46.4 °F 100% 29.51 in 1.8 mi Variable 3.5 mph - 0.05 in Rain Rain
9:53 AM 46.9 °F - 46.0 °F 97% 29.54 in 1.8 mi SW 5.8 mph - 0.12 in Rain Rain
10:03 AM 48.2 °F - 46.4 °F 93% 29.55 in 2.5 mi Variable 5.8 mph - 0.02 in Rain Rain
10:10 AM 46.4 °F - 46.4 °F 100% 29.55 in 3.0 mi Calm Calm - 0.03 in Rain Rain
10:46 AM 46.4 °F - 46.4 °F 100% 29.56 in 10.0 mi Calm Calm - 0.05 in Rain Light Rain
10:53 AM 46.9 °F - 45.0 °F 93% 29.57 in 10.0 mi Calm Calm - 0.05 in   Overcast
11:24 AM 46.4 °F - 46.4 °F 100% 29.57 in 5.0 mi Calm Calm - 0.00 in Rain Light Rain
11:44 AM 46.4 °F - 46.4 °F 100% 29.57 in 10.0 mi Calm Calm - 0.00 in   Overcast
11:53 AM 46.9 °F - 46.0 °F 97% 29.58 in 10.0 mi Calm Calm - 0.00 in   Overcast
12:07 PM 48.2 °F - 46.4 °F 93% 29.57 in 9.0 mi Calm Calm - 0.00 in Rain Light Rain
12:28 PM 46.4 °F - 44.6 °F 93% 29.58 in 4.0 mi Calm Calm - 0.01 in Rain Light Rain
12:31 PM 46.4 °F - 46.4 °F 100% 29.58 in 2.5 mi Calm Calm - 0.02 in Rain Rain
12:36 PM 46.4 °F 45.2 °F 46.4 °F 100% 29.58 in 1.5 mi WSW 3.5 mph - 0.03 in Rain Rain
12:43 PM 46.4 °F 44.3 °F 46.4 °F 100% 29.58 in 1.0 mi South 4.6 mph - 0.05 in Rain Heavy Rain
12:51 PM 46.4 °F - 44.6 °F 93% 29.58 in 2.5 mi Calm Calm - 0.06 in Rain Light Rain
12:53 PM 46.9 °F - 45.0 °F 93% 29.58 in 4.0 mi SE 3.5 mph - 0.06 in Rain Light Rain
1:11 PM 46.4 °F - 44.6 °F 93% 29.57 in 10.0 mi Calm Calm - 0.00 in   Overcast
1:53 PM 48.0 °F - 45.0 °F 89% 29.57 in 10.0 mi SSE 3.5 mph - 0.00 in   Mostly Cloudy
2:53 PM 48.0 °F - 44.1 °F 86% 29.58 in 10.0 mi South 3.5 mph - N/A   Partly Cloudy
3:53 PM 46.9 °F - 43.0 °F 86% 29.57 in 10.0 mi SSE 3.5 mph - N/A   Scattered Clouds
4:53 PM 44.1 °F - 42.1 °F 93% 29.57 in 10.0 mi Calm Calm - N/A   Clear
5:53 PM 43.0 °F 41.3 °F 41.0 °F 93% 29.56 in 10.0 mi ENE 3.5 mph - N/A   Partly Cloudy
6:53 PM 41.0 °F - 39.0 °F 93% 29.57 in 10.0 mi Calm Calm - N/A   Clear
7:39 PM 39.2 °F 37.0 °F 39.2 °F 100% 29.56 in 10.0 mi Variable 3.5 mph - N/A   Mostly Cloudy
7:53 PM 39.9 °F 35.1 °F 39.0 °F 97% 29.56 in 10.0 mi NNE 6.9 mph - N/A   Mostly Cloudy
8:12 PM 41.0 °F 38.0 °F 39.2 °F 93% 29.56 in 10.0 mi NNE 4.6 mph - N/A   Overcast
8:53 PM 39.9 °F 37.8 °F 39.0 °F 97% 29.57 in 10.0 mi NE 3.5 mph - N/A   Mostly Cloudy
9:53 PM 39.9 °F - 37.9 °F 93% 29.57 in 10.0 mi Calm Calm - N/A   Mostly Cloudy
10:53 PM 39.9 °F - 37.9 °F 93% 29.57 in 10.0 mi Calm Calm - N/A   Scattered Clouds
11:53 PM 39.9 °F - 37.9 °F 93% 29.58 in 10.0 mi Calm Calm - N/A   Scattered Clouds